GW5682 Weather Reports


Display with metric or nautical units.
time (UTC)temp
F
wind
direction
speed
MPH
gust
MPH
rain 1hr
in
rain 24hr
in
rain mn
in
humidity
%
barometer
mb
20260904160202 91 180 1.0 2.0 0.00 0.00 0.00 53 1017.4
20260904155137 91 225 1.0 3.0 0.00 0.00 0.00 53 1017.1
20260904154221 90 180 2.0 4.0 0.00 0.00 0.00 60 1017.4
20260904153117 89 90 1.0 2.0 0.00 0.01 0.00 62 1017.2
20260904152141 88 180 1.0 1.0 0.00 0.01 0.00 63 1017.2
20260904151117 87 315 1.0 2.0 0.00 0.01 0.00 65 1017.3
20260904150141 86 180 1.0 2.0 0.00 0.01 0.00 71 1017.2
20260904145117 85 180 3.0 4.0 0.00 0.01 0.00 71 1017.6
20260904144141 84 45 2.0 4.0 0.00 0.01 0.00 74 1017.5
20260904143117 83 45 3.0 5.0 0.00 0.01 0.00 76 1017.3
20260904142141 82 135 1.0 2.0 0.00 0.01 0.00 79 1017.3
20260904141137 81 23 1.0 1.0 0.00 0.01 0.00 85 1017.3
20260904140141 80 0.0 1.0 0.00 0.01 0.00 88 1017.4
20260904135117 79 90 1.0 1.0 0.00 0.01 0.00 92 1017.3
20260904134202 78 0.0 1.0 0.00 0.01 0.00 94 1017.1
20260904133137 78 0.0 1.0 0.00 0.01 0.00 95 1017.0
20260904132141 77 135 1.0 1.0 0.00 0.01 0.00 97 1017.1
20260904131117 77 338 1.0 3.0 0.00 0.01 0.00 98 1016.8
20260904130141 76 90 1.0 2.0 0.00 0.01 0.00 98 1016.8
20260904125117 76 135 1.0 2.0 0.00 0.01 0.00 98 1016.6
20260904124221 76 0.0 1.0 0.00 0.01 0.00 98 1016.4
20260904123117 76 90 1.0 2.0 0.00 0.01 0.00 98 1016.5
20260904122141 75 0.0 1.0 0.00 0.01 0.00 98 1016.5
20260904121117 75 180 1.0 1.0 0.00 0.01 0.00 97 1016.3
20260904120141 74 90 1.0 1.0 0.00 0.01 0.00 96 1016.3
20260904115117 74 135 1.0 1.0 0.00 0.01 0.00 95 1016.2
20260904114141 74 0.0 1.0 0.00 0.01 0.00 95 1016.3
20260904113137 74 0.0 0.0 0.00 0.01 0.00 94 1016.2
20260904112141 74 0.0 1.0 0.00 0.01 0.00 93 1016.0
20260904111117 74 0.0 1.0 0.00 0.01 0.00 92 1016.2
20260904110141 74 0.0 0.0 0.00 0.01 0.00 91 1016.2
20260904105117 74 0.0 0.0 0.00 0.01 0.00 91 1016.1
20260904104141 74 0.0 0.0 0.00 0.01 0.00 91 1015.9
20260904103117 74 0.0 1.0 0.00 0.01 0.00 91 1015.8
20260904102141 74 0.0 0.0 0.00 0.01 0.00 90 1015.8
20260904101117 74 0.0 1.0 0.00 0.01 0.00 89 1015.6
20260904100201 74 0.0 0.0 0.00 0.01 0.00 88 1015.6
20260904095117 74 90 1.0 1.0 0.00 0.01 0.00 87 1015.6
20260904094141 74 0.0 0.0 0.00 0.01 0.00 85 1015.8
20260904093117 74 0.0 0.0 0.00 0.01 0.00 85 1015.7
20260904092141 75 0.0 0.0 0.00 0.02 0.00 84 1015.9
20260904091117 75 0.0 0.0 0.00 0.04 0.00 83 1015.9
20260904090201 75 0.0 1.0 0.00 0.05 0.00 84 1015.7
20260904085117 75 0.0 0.0 0.00 0.05 0.00 83 1015.7
20260904084201 75 0.0 0.0 0.00 0.05 0.00 83 1015.7
20260904083117 75 0.0 0.0 0.00 0.05 0.00 82 1015.8
20260904082141 75 0.0 0.0 0.00 0.05 0.00 82 1015.6
20260904081117 75 0.0 0.0 0.00 0.05 0.00 81 1015.8
20260904080141 75 180 1.0 1.0 0.00 0.05 0.00 81 1015.5
20260904075117 76 0.0 1.0 0.00 0.05 0.00 80 1015.5
20260904074141 76 0.0 0.0 0.00 0.05 0.00 80 1015.6
20260904073117 76 0.0 1.0 0.00 0.05 0.00 79 1015.6
20260904072201 76 0.0 0.0 0.00 0.05 0.00 78 1015.8
20260904071117 76 0.0 1.0 0.00 0.05 0.00 77 1015.6
20260904070141 77 0.0 0.0 0.00 0.05 0.00 77 1015.6
20260904065117 77 135 1.0 2.0 0.00 0.05 0.00 77 1015.8
20260904064141 77 135 1.0 1.0 0.00 0.05 0.00 76 1015.8
20260904063117 77 135 1.0 1.0 0.00 0.05 0.00 76 1016.0
20260904062141 77 45 1.0 1.0 0.00 0.05 0.00 76 1015.8
20260904061117 77 135 1.0 2.0 0.00 0.05 0.00 75 1015.7
20260904060141 77 90 1.0 1.0 0.00 0.05 0.00 74 1015.9
20260904055117 77 225 1.0 2.0 0.00 0.05 0.00 74 1015.8
20260904054141 77 0.0 1.0 0.00 0.05 0.00 73 1015.9
20260904053117 77 0.0 1.0 0.00 0.05 0.00 73 1015.9
20260904052141 77 0.0 0.0 0.00 0.05 0.00 73 1015.6
20260904051117 77 0.0 0.0 0.00 0.05 0.00 73 1015.7
20260904050141 78 0.0 1.0 0.00 0.05 0.00 72 1015.7
20260904045157 78 0.0 1.0 0.00 0.05 0.05 72 1015.4
20260904044141 78 135 1.0 2.0 0.00 0.05 0.05 72 1015.9
20260904043117 78 90 1.0 2.0 0.00 0.05 0.05 72 1015.7
20260904042141 79 135 1.0 1.0 0.00 0.05 0.05 71 1015.9
20260904041157 79 90 1.0 1.0 0.00 0.05 0.05 71 1015.8
20260904040141 79 0.0 1.0 0.00 0.05 0.05 72 1015.9
20260904035117 79 90 1.0 1.0 0.00 0.05 0.05 72 1015.8
20260904034141 80 135 1.0 2.0 0.00 0.05 0.05 72 1015.8
20260904033138 80 90 1.0 1.0 0.00 0.05 0.05 72 1015.8
20260904032201 80 0.0 1.0 0.00 0.05 0.05 72 1015.9
20260904031117 80 90 1.0 1.0 0.00 0.05 0.05 71 1015.8
20260904030141 80 135 1.0 1.0 0.00 0.05 0.05 71 1015.8
20260904025137 81 0.0 1.0 0.00 0.05 0.05 70 1015.7
20260904024141 81 45 1.0 1.0 0.00 0.05 0.05 70 1015.6
20260904023117 81 203 3.0 4.0 0.00 0.05 0.05 72 1015.4
20260904022141 81 0.0 0.0 0.00 0.05 0.05 72 1015.1
20260904021117 82 0.0 0.0 0.00 0.05 0.05 69 1015.0
20260904020141 82 0.0 1.0 0.00 0.05 0.05 69 1014.5
20260904015117 82 135 1.0 1.0 0.00 0.05 0.05 68 1014.6
20260904014141 82 270 1.0 1.0 0.00 0.05 0.05 67 1014.6
20260904013117 82 90 2.0 3.0 0.00 0.05 0.05 66 1014.5
20260904012141 83 180 2.0 3.0 0.00 0.05 0.05 65 1014.3
20260904011117 83 0.0 1.0 0.00 0.05 0.05 63 1014.3
20260904010141 83 0.0 0.0 0.00 0.05 0.05 62 1014.4
20260904005117 84 0.0 1.0 0.00 0.05 0.05 61 1014.4
20260904004221 84 90 3.0 5.0 0.00 0.05 0.05 60 1014.3
20260904003137 85 135 1.0 2.0 0.00 0.05 0.05 59 1014.2
20260904002141 86 135 1.0 2.0 0.00 0.05 0.05 58 1014.4
20260904001117 87 180 1.0 3.0 0.00 0.05 0.05 58 1014.0
20260904000203 88 180 5.0 7.0 0.00 0.05 0.05 57 1014.1
20260903235138 88 90 2.0 4.0 0.00 0.05 0.05 57 1014.1
20260903234141 89 45 5.0 7.0 0.00 0.05 0.05 55 1014.0
20260903233117 90 90 3.0 5.0 0.00 0.05 0.05 54 1013.9
20260903232141 91 180 4.0 6.0 0.00 0.05 0.05 51 1013.7
20260903231117 91 135 3.0 6.0 0.00 0.05 0.05 50 1014.0
20260903230141 92 90 4.0 6.0 0.00 0.05 0.05 49 1013.9
20260903225117 92 225 7.0 8.0 0.00 0.05 0.05 50 1013.7
20260903224141 92 135 4.0 6.0 0.00 0.05 0.05 50 1014.0
20260903223117 92 180 3.0 7.0 0.00 0.05 0.05 49 1013.9
20260903222141 92 180 3.0 6.0 0.00 0.05 0.05 49 1013.9
20260903221117 93 135 3.0 7.0 0.00 0.05 0.05 49 1013.6
20260903220201 93 158 1.0 1.0 0.00 0.05 0.05 50 1013.7
20260903215117 92 135 6.0 7.0 0.00 0.05 0.05 49 1014.0
20260903214201 92 135 5.0 10.0 0.00 0.05 0.05 50 1013.9
20260903213117 92 90 6.0 8.0 0.00 0.05 0.05 50 1014.1
20260903212202 91 135 5.0 8.0 0.00 0.05 0.05 51 1014.2
20260903211137 93 135 6.0 7.0 0.00 0.05 0.05 48 1014.1
20260903210141 94 135 3.0 6.0 0.00 0.05 0.05 50 1014.2
20260903205137 93 225 3.0 5.0 0.00 0.05 0.05 51 1014.4
20260903204201 92 45 4.0 5.0 0.00 0.05 0.05 51 1014.5
20260903203117 93 225 3.0 5.0 0.00 0.05 0.05 50 1014.6
20260903202141 92 90 1.0 3.0 0.00 0.05 0.05 51 1015.0
20260903201117 92 180 3.0 5.0 0.00 0.05 0.05 52 1014.9
20260903200201 92 203 1.0 3.0 0.00 0.05 0.05 53 1014.9
20260903195117 90 180 2.0 3.0 0.00 0.05 0.05 62 1014.9
20260903194141 87 135 3.0 4.0 0.00 0.05 0.05 62 1015.2
20260903193117 87 135 1.0 2.0 0.00 0.05 0.05 63 1015.4
20260903192141 86 135 3.0 5.0 0.00 0.05 0.05 63 1015.6
20260903191137 86 135 1.0 3.0 0.00 0.05 0.05 64 1015.7
20260903190141 85 180 3.0 5.0 0.00 0.05 0.05 65 1015.6
20260903185117 86 203 3.0 7.0 0.00 0.05 0.05 64 1015.9
20260903184141 85 135 3.0 6.0 0.00 0.05 0.05 70 1015.9
20260903183117 83 135 2.0 4.0 0.00 0.05 0.05 71 1016.2
20260903182141 82 248 1.0 3.0 0.00 0.05 0.05 74 1016.2
20260903181117 81 0 3.0 4.0 0.00 0.05 0.05 78 1016.3
20260903180006 80 135 1.0 1.0 0.00 0.05 0.05 81 1016.5
20260903175119 80 135 2.0 5.0 0.00 0.05 0.05 83 1016.4
20260903174143 80 90 1.0 3.0 0.00 0.05 0.05 83 1016.6
20260903173139 80 135 1.0 2.0 0.00 0.05 0.05 84 1016.7
20260903172143 79 45 1.0 1.0 0.00 0.05 0.05 84 1016.9
20260903171119 80 158 2.0 5.0 0.00 0.05 0.05 84 1016.9
20260903170143 79 45 4.0 7.0 0.00 0.05 0.05 84 1016.8
20260903165139 80 90 1.0 1.0 0.00 0.05 0.05 83 1016.8
20260903164143 80 180 4.0 6.0 0.00 0.05 0.05 84 1016.6
20260903163119 80 90 3.0 5.0 0.01 0.05 0.05 84 1016.6
20260903162142 81 90 1.0 3.0 0.01 0.05 0.05 86 1016.7
20260903161119 81 315 4.0 7.0 0.01 0.05 0.05 90 1016.5